Weather History for Lynchburg, VA

Change the Weather History Date:

Friday, June 14, 2013

  Actual Average Record
Temperature  
Mean Temperature 69 °F 72 °F  
Max Temperature 79 °F 83 °F 94 °F (1926)
Min Temperature 58 °F 60 °F 42 °F (1985)
Degree Days  
Heating Degree Days 0 0  
Month to date heating degree days 1 13  
Since 1 June heating degree days 1 13  
Since 1 July heating degree days 4293 4458  
Cooling Degree Days 4 7  
Month to date cooling degree days 109 77  
Year to date cooling degree days 244 159  
Since 1 June cooling degree days 109 77  
Growing Degree Days 20 (Base 50)    
Moisture  
Dew Point 54 °F    
Average Humidity 66    
Maximum Humidity 90    
Minimum Humidity 42    
Precipitation  
Precipitation 0.00 in 0.12 in 2.13 in (1947)
Month to date precipitation 5.13 1.74  
Year to date precipitation 25.57 18.43  
Snow  
Snow 0.00 in - - ()
Month to date snowfall 0.0  
Since 1 June snowfall 0.0  
Since 1 July snowfall 13.0  
Snow Depth 0.00 in    
Sea Level Pressure  
Sea Level Pressure 29.88 in    
Wind  
Wind Speed 4 mph (North)    
Max Wind Speed 13 mph    
Max Gust Speed 21 mph    
Visibility 10 miles    
Events      
T = Trace of Precipitation, MM = Missing Value Source: NWS Daily Summary

Daily Weather History Graph

Daily Weather History Graph

Search for Another Location

Airport:

Trip Planner

Search our weather history database for the weather conditions in past years. The results will help you decide how hot, cold, wet, or windy it might be!

Date:

Astronomy

Jun. 14, 2013 Rise Set
Actual Time 5:55 AM EDT 8:38 PM EDT
Civil Twilight 5:24 AM EDT 9:09 PM EDT
Nautical Twilight 4:45 AM EDT 9:48 PM EDT
Astronomical Twilight 4:02 AM EDT 10:32 PM EDT
Moon 11:22 AM EDT (6/14) No Moon Set
Length of Visible Light 15h 45m
Length of Day
14h 43m
Waxing Crescent, 30% of the Moon is Illuminated
Jun 14
Waxing Crescent
Jun 16
First Quarter
Jun 23
Full
Jun 30
Last Quarter
Jul 8
New

Hourly Weather History & Observations

Time (EDT) Temp. Dew Point Humidity Pressure Visibility Wind Dir Wind Speed Gust Speed Precip Events Conditions
12:54 AM 66.9 °F 54.0 °F 63% 29.73 in 10.0 mi Variable 6.9 mph - N/A   Clear
1:54 AM 66.9 °F 53.1 °F 61% 29.73 in 10.0 mi Variable 5.8 mph - N/A   Clear
2:54 AM 66.0 °F 53.1 °F 63% 29.75 in 10.0 mi NW 4.6 mph - N/A   Clear
3:54 AM 64.9 °F 52.0 °F 63% 29.75 in 10.0 mi Variable 3.5 mph - N/A   Clear
4:54 AM 64.0 °F 52.0 °F 65% 29.77 in 10.0 mi Variable 3.5 mph - N/A   Clear
5:54 AM 64.0 °F 52.0 °F 65% 29.78 in 10.0 mi Calm Calm - N/A   Clear
6:54 AM 64.9 °F 53.1 °F 65% 29.80 in 10.0 mi Variable 5.8 mph - N/A   Clear
7:54 AM 69.1 °F 55.0 °F 61% 29.82 in 10.0 mi Calm Calm - N/A   Clear
8:12 AM 69.8 °F 53.6 °F 56% 29.86 in 10.0 mi Variable 5.8 mph - N/A   Partly Cloudy
8:54 AM 70.0 °F 53.1 °F 55% 29.86 in 10.0 mi NW 8.1 mph - N/A   Partly Cloudy
9:54 AM 72.0 °F 53.1 °F 51% 29.88 in 10.0 mi NNW 8.1 mph - N/A   Clear
10:54 AM 72.0 °F 53.1 °F 51% 29.90 in 10.0 mi North 9.2 mph - N/A   Clear
11:54 AM 75.0 °F 53.1 °F 46% 29.91 in 10.0 mi North 8.1 mph - N/A   Clear
12:54 PM 75.9 °F 54.0 °F 46% 29.92 in 10.0 mi North 9.2 mph 18.4 mph N/A   Partly Cloudy
1:54 PM 75.9 °F 53.1 °F 45% 29.92 in 10.0 mi NNE 8.1 mph - N/A   Mostly Cloudy
2:54 PM 77.0 °F 53.1 °F 43% 29.93 in 10.0 mi Variable 5.8 mph - N/A   Scattered Clouds
3:54 PM 75.9 °F 53.1 °F 45% 29.94 in 10.0 mi NNE 8.1 mph - N/A   Mostly Cloudy
4:54 PM 79.0 °F 54.0 °F 42% 29.93 in 10.0 mi Variable 3.5 mph - N/A   Scattered Clouds
5:54 PM 75.9 °F 54.0 °F 46% 29.94 in 10.0 mi NNW 3.5 mph - N/A   Clear
6:54 PM 78.1 °F 55.0 °F 45% 29.94 in 10.0 mi North 3.5 mph - N/A   Clear
7:54 PM 73.0 °F 57.0 °F 57% 29.96 in 10.0 mi Calm Calm - N/A   Clear
8:54 PM 64.0 °F 57.9 °F 80% 29.98 in 10.0 mi Calm Calm - N/A   Clear
9:54 PM 62.1 °F 57.0 °F 84% 30.00 in 10.0 mi Calm Calm - N/A   Clear
10:54 PM 62.1 °F 57.9 °F 86% 30.01 in 10.0 mi Calm Calm - N/A   Clear
11:54 PM 60.1 °F 57.0 °F 90% 30.03 in 10.0 mi Calm Calm - N/A   Clear